Printer-friendly version

IAU Minor Planet Center

Minor Planet Center

MPEC 2001-K10: 1999 CB119, 1999 CM153, 2000 CP104, 2000 CH105, 2000 FH8

The following Minor Planet Electronic Circular may be linked-to from your own Web pages, but must not otherwise be redistributed electronically.


Read MPEC 2001-K09 Read MPEC 2001-K11


M.P.E.C. 2001-K10                                Issued 2001 May 18, 20:19 UT

     The Minor Planet Electronic Circulars contain information on unusual
         minor planets and routine data on comets.  They are published
   on behalf of Commission 20 of the International Astronomical Union by the
          Minor Planet Center, Smithsonian Astrophysical Observatory,
                          Cambridge, MA 02138, U.S.A.

             Prepared using the Tamkin Foundation Computer Network

                              MPC@CFA.HARVARD.EDU
          URL http://cfa-www.harvard.edu/iau/mpc.html  ISSN 1523-6714

           1999 CB119, 1999 CM153, 2000 CP104, 2000 CH105, 2000 FH8

       Revision to MPEC 1999-E05, 1999-F02, 2000-E64, 2000-F02, 2000-F46

Observations:
     J99CB9B 1C2000 04 07.40590 11 13 10.26 +05 00 28.5          23.0 R      568
     J99CB9B 1C2000 04 07.45841 11 13 10.04 +05 00 30.1          23.0 R      568
     J99CB9B 7C2001 02 25.55225 11 21 57.74 +04 17 48.6          22.9 R      568
     J99CB9B 7C2001 02 25.59795 11 21 57.55 +04 17 49.8                      568
     J99CF3M 7C2001 02 25.44983 10 11 22.67 +11 22 44.7          22.3 R      568
     J99CF3M 7C2001 02 25.49016 10 11 22.46 +11 22 45.9                      568
     J99CF3M 1C2001 03 24.21485 10 09 26.40 +11 33 28.0          23.2 R      695
     J99CF3M 1C2001 03 24.32075 10 09 25.99 +11 33 30.1                      695
     K00CA4P 7C2001 02 25.45861 10 12 55.12 +14 32 16.3          23.0 R      568
     K00CA4P 7C2001 02 25.50079 10 12 54.93 +14 32 17.4                      568
     K00CA4P 1C2001 03 24.17961 10 11 08.72 +14 42 09.1          23.1 R      695
     K00CA4P 1C2001 03 24.32559 10 11 08.21 +14 42 11.9                      695
     K00CA5H 7C2001 02 25.48097 10 55 22.53 +06 23 15.3          22.7 R      568
     K00CA5H 7C2001 02 25.52039 10 55 22.34 +06 23 16.1                      568
     K00CA5H 1C2001 03 24.19064 10 53 27.64 +06 34 57.3          22.5 R      695
     K00CA5H 1C2001 03 24.34426 10 53 27.00 +06 35 01.0                      695
     K00F08H  C2001 02 24.23987 12 28 55.59 -03 03 29.0                      309
     K00F08H  C2001 02 24.29212 12 28 55.40 -03 03 27.8          23.5 R      309
     K00F08H  C2001 02 24.33747 12 28 55.24 -03 03 26.8          23.7 R      309
     K00F08H 7C2001 04 27.31082 12 24 46.73 -02 37 14.0          23.2 R      568
     K00F08H 7C2001 04 27.39579 12 24 46.40 -02 37 12.0                      568
     K00F08H 7C2001 04 27.47426 12 24 46.10 -02 37 10.4                      568

Observer details:
309 Cerro Paranal.  Observer B. Gladman.  ESO VLT UT-1 8-m reflector + CCD.
568 Mauna Kea.  Observers D. C. Jewitt, C. A. Trujillo, S. S. Sheppard,
    G. Bauer, J. Pittichova, K. Meech.  Measurers C. A. Trujillo, M. Buie,
    L. H. Wasserman.  3.6-m Canada-France-Hawaii Telescope + CCD.  2.2-m
    University of Hawaii reflector + CCD.
695 Kitt Peak.  Observers M. W. Buie, S. Kern.  Measurers M. W. Buie,
    L. H. Wasserman.  3.5-m WIYN reflector + CCD.

Orbital elements:
1999 CB119
Epoch 2001 Apr. 1.0 TT = JDT 2452000.5                  Marsden
M   8.89601              (2000.0)            P               Q
n   0.00306503     Peri.  349.69184     -0.92629391     -0.37549386
a  46.9367497      Node   168.10719     +0.35563888     -0.89874087
e   0.1296420      Incl.    8.75517     +0.12450134     -0.22642706
P 322              H    7.0           G   0.15           U   5
Residuals in seconds of arc
J992A  568  0.0   0.0     J993A  568  0.1+  0.5+    K0047  568  0.2-  0.1-
J992A  568  0.3-  0.7-    J994C  568  0.1-  0.1+    K012P  568  0.1-  0.2+
J992I  568  0.2+  0.2+    J994D  568  0.1+  0.0     K012P  568  0.1+  0.0
J992I  568  0.1+  0.1+    K0047  568  0.1+  0.3-

1999 CM153
Epoch 2001 Apr. 1.0 TT = JDT 2452000.5                  Marsden
M  43.02922              (2000.0)            P               Q
n   0.00317525     Peri.    1.55446     -0.09401796     -0.99556425
a  45.8441827      Node    93.84035     +0.91337992     -0.08766559
e   0.1413826      Incl.    0.20260     +0.39610321     -0.03415506
P 310              H    7.4           G   0.15           U   5
Residuals in seconds of arc
J992B  568  0.0   0.1+    J9949  568  0.0   0.2-    K013O  695  0.0   0.1-
J992B  568  0.1+  0.3+    J9949  568  0.0   0.0     K013O  695  0.0   0.2-
J9938  568  0.0   0.0     K012P  568  0.2+  0.1+
J9938  568  0.1-  0.1-    K012P  568  0.1-  0.2+

2000 CP104
Epoch 2001 Apr. 1.0 TT = JDT 2452000.5                  Marsden
M 241.12083              (2000.0)            P               Q
n   0.00333794     Peri.  147.92587     +0.15348712     +0.98020749
a  44.3422045      Node   130.58422     -0.93783227     +0.18436532
e   0.0972329      Incl.    9.47662     -0.31130746     -0.07212973
P 295              H    6.9           G   0.15           U   6
Residuals in seconds of arc
K0026  695  0.1-  0.0     K002R  695  0.1-  0.0     K012P  568  0.1+  0.0
K0026  695  0.1+  0.1-    K002R  695  0.0   0.0     K012P  568  0.0   0.1+
K002R  695  0.2+  0.2+    K004A  695  0.2+  0.0     K013O  695  0.1-  0.1-
K002R  695  0.2+  0.0     K004A  695  0.1-  0.2-    K013O  695  0.1+  0.0

2000 CH105
Epoch 2001 Apr. 1.0 TT = JDT 2452000.5                  Marsden
M 281.73150              (2000.0)            P               Q
n   0.00333281     Peri.  291.12664     -0.32332365     +0.94619925
a  44.3876997      Node   320.00190     -0.86053066     -0.29970567
e   0.0893491      Incl.    1.15817     -0.39363536     -0.12199788
P 296              H    6.7           G   0.15           U   5
Residuals in seconds of arc
K0025  695  0.0   0.2-    K004A  695  0.3+  0.5+    K013O  695  0.0   0.1-
K0025  695  0.1-  0.0     K004A  695  0.1-  0.1-    K013O  695  0.1-  0.2-
K0031  695  0.3+  0.1+    K012P  568  0.2+  0.3+
K0031  695  0.3-  0.3-    K012P  568  0.0   0.0

2000 FH8
Eccentricity assumed
Epoch 2001 Apr. 1.0 TT = JDT 2452000.5                  Marsden
M 111.41199              (2000.0)            P               Q
n   0.00343064     Peri.   59.90762     +0.36296299     -0.93178707
a  43.5397438      Node     8.81544     +0.84198210     +0.32542094
e   0.0693681      Incl.    2.07288     +0.39915413     +0.16085418
P 287              H    7.3           G   0.15
Residuals in seconds of arc
K003T  568  0.2+  0.5+    K007R  309  0.3+  0.5-    K012O  309  0.2+  0.3-
K003T  568  0.0   0.4+    K007R  309  0.2+  0.5-    K014R  568  0.0   0.4+
K003T  568  0.1-  0.4+    K007R  309  0.3+  0.4-    K014R  568  0.3-  0.5+
K003U  568  0.3-  0.4-    K012O  309  0.2+  0.4-    K014R  568  0.5-  0.3+
K003U  568  0.4-  0.1+    K012O  309  0.2+  0.3-

Ephemerides:
1999 CB119               a,e,i = 46.94, 0.13, 9                  q = 40.852
Date    TT    R. A. (2000) Decl.     Delta      r     Elong.  Phase     V
2001 05 11    11 17.39   +04 49.7   40.468   40.951   118.0     1.2    23.3
2001 05 21    11 17.19   +04 51.4   40.623   40.952   108.3     1.3    23.3
2001 05 31    11 17.13   +04 52.1   40.788   40.952    98.6     1.4    23.3
2001 06 10    11 17.22   +04 51.8   40.956   40.953    89.1     1.4    23.3
2001 06 20    11 17.45   +04 50.7   41.125   40.954    79.6     1.4    23.3
2001 06 30    11 17.83   +04 48.6   41.288   40.954    70.2     1.3    23.3
2001 07 10    11 18.34   +04 45.7   41.442   40.955    60.8     1.2    23.3
2001 07 20    11 18.98   +04 42.0   41.582   40.956    51.4     1.1    23.3
2001 07 30    11 19.72   +04 37.6   41.705   40.956    42.0     1.0    23.3
2001 08 09    11 20.56   +04 32.6   41.807   40.957    32.7     0.8    23.3

1999 CM153               a,e,i = 45.84, 0.14, 0                  q = 39.363
Date    TT    R. A. (2000) Decl.     Delta      r     Elong.  Phase     V
2001 05 11    10 07.78   +11 42.5   41.440   41.617    99.4     1.4    23.8
2001 05 21    10 07.84   +11 42.1   41.611   41.620    89.8     1.4    23.8
2001 05 31    10 08.05   +11 40.9   41.783   41.623    80.2     1.4    23.8
2001 06 10    10 08.41   +11 38.9   41.950   41.626    70.8     1.3    23.8
2001 06 20    10 08.91   +11 36.1   42.107   41.629    61.4     1.2    23.8
2001 06 30    10 09.53   +11 32.6   42.251   41.632    52.0     1.1    23.8
2001 07 10    10 10.27   +11 28.5   42.377   41.635    42.6     0.9    23.8
2001 07 20    10 11.10   +11 23.9   42.484   41.638    33.3     0.8    23.8

2000 CP104               a,e,i = 44.34, 0.10, 9                  q = 40.031
Date    TT    R. A. (2000) Decl.     Delta      r     Elong.  Phase     V
2001 05 11    10 09.57   +14 49.2   46.552   46.715    98.7     1.2    23.8
2001 05 21    10 09.61   +14 48.6   46.718   46.713    89.1     1.2    23.8
2001 05 31    10 09.78   +14 47.2   46.884   46.711    79.6     1.2    23.8
2001 06 10    10 10.09   +14 45.1   47.045   46.709    70.1     1.2    23.8
2001 06 20    10 10.52   +14 42.3   47.197   46.707    60.7     1.1    23.8
2001 06 30    10 11.07   +14 39.0   47.334   46.705    51.3     1.0    23.8
2001 07 10    10 11.72   +14 35.2   47.454   46.703    42.0     0.8    23.8
2001 07 20    10 12.46   +14 31.0   47.554   46.701    32.7     0.7    23.8

2000 CH105               a,e,i = 44.39, 0.09, 1                  q = 40.422
Date    TT    R. A. (2000) Decl.     Delta      r     Elong.  Phase     V
2001 05 11    10 51.26   +06 48.6   43.544   43.919   111.2     1.2    23.3
2001 05 21    10 51.15   +06 49.4   43.704   43.917   101.5     1.3    23.3
2001 05 31    10 51.17   +06 49.3   43.869   43.915    91.9     1.3    23.3
2001 06 10    10 51.33   +06 48.4   44.035   43.913    82.4     1.3    23.3
2001 06 20    10 51.63   +06 46.6   44.198   43.910    72.9     1.3    23.3
2001 06 30    10 52.06   +06 44.1   44.352   43.908    63.5     1.2    23.3
2001 07 10    10 52.60   +06 40.8   44.494   43.906    54.1     1.1    23.3
2001 07 20    10 53.26   +06 36.8   44.619   43.903    44.7     0.9    23.3
2001 07 30    10 54.00   +06 32.3   44.725   43.901    35.4     0.8    23.3

2000 FH8                 a,e,i = 43.54, 0.07, 2                  q = 40.519
Date    TT    R. A. (2000) Decl.     Delta      r     Elong.  Phase     V
2001 05 11    12 24.04   -02 32.6   44.089   44.823   136.2     0.9    23.9
2001 05 21    12 23.62   -02 30.0   44.217   44.825   126.4     1.0    23.9
2001 05 31    12 23.31   -02 28.0   44.361   44.826   116.7     1.2    24.0
2001 06 10    12 23.12   -02 26.9   44.519   44.828   107.1     1.2    24.0
2001 06 20    12 23.06   -02 26.6   44.685   44.830    97.5     1.3    24.0
2001 06 30    12 23.14   -02 27.2   44.855   44.831    88.0     1.3    24.0
2001 07 10    12 23.35   -02 28.6   45.024   44.833    78.5     1.3    24.0
2001 07 20    12 23.69   -02 30.9   45.187   44.834    69.1     1.2    24.0
2001 07 30    12 24.15   -02 34.0   45.340   44.836    59.7     1.1    24.0
2001 08 09    12 24.72   -02 37.7   45.479   44.837    50.2     1.0    24.0
2001 08 19    12 25.39   -02 42.1   45.600   44.839    40.8     0.8    24.0
2001 08 29    12 26.14   -02 47.1   45.700   44.841    31.4     0.7    24.0

Brian G. Marsden             (C) Copyright 2001 MPC           M.P.E.C. 2001-K10

Read MPEC 2001-K09 Read MPEC 2001-K11


Our Web policy. Index to the CBAT/MPC/ICQ pages.


Valid HTML 4.01!